Regional Weather Roundup
Issued by NWS New Orleans/Baton Rouge, LA

Home | Current Version | Previous Version | Graphics & Text | Print | Product List | Glossary On
Versions: 1 2 3 4 5 6 7 8 9 10 11 12 13 14 15 16 17 18 19 20 21 22 23 24 25 26 27 28 29 30 31 32 33 34 35 36 37 38 39 40 41 42 43 44 45 46 47 48 49 50
313
ASUS44 KLIX 300707
RWRLIX
NEW ORLEANS REGIONAL WEATHER ROUNDUP
NATIONAL WEATHER SERVICE NEW ORLEANS LA
200 AM CDT MON MAR 30 2015

NOTE: "FAIR" INDICATES FEW OR NO CLOUDS BELOW 12,000 FEET WITH NO
      SIGNIFICANT WEATHER AND/OR OBSTRUCTIONS TO VISIBILITY.
      SKY/WX - SKY CONDITION AND SIGNIFICANT WEATHER.
      TMP - AIR TEMPERATURE.     DP    - DEWPOINT TEMPERATURE.
      RH  - RELATIVE HUMIDITY.   PRES  - PRESSURE.
      HI  - HEAT INDEX.          WCI   - WIND CHILL INDEX.

*  THESE STATIONS ARE NOT NWS OR FAA STATIONS AND ARE NOT UNDER
   NWS QUALITY CONTROL.

LAZ038-040-048-061>063-065>067-069-300800-
SOUTHEAST LOUISIANA

CITY           SKY/WX    TMP DP  RH WIND       PRES   REMARKS
N.O. AUDUBON     N/A     64  64 100 MISG        N/A
N.O. INTL ARPT CLEAR     64  61  90 S7        30.17F
N.O. LAKEFRONT CLEAR     66  61  84 S9        30.18F
SLIDELL        CLEAR     62  61  96 S3        30.17F
BATON ROUGE    PTCLDY    65  60  84 S5        30.19R
BOOTHVILLE     PTCLDY    67  65  93 S7        30.21F
BELLE CHASSE   FOG       58  57  97 SW5       30.17F VSB 1
BOGALUSA*        N/A     64  61  89 CALM      30.21R
GALLIANO*      SUNNY     65  62  93 S7        30.19F
NEW ROADS*     CLOUDY    64  61  91 CALM      30.20R
GONZALES*        N/A     63  63 100 S3        30.16F
HAMMOND*       CLEAR     63  61  94 CALM      30.20R
HOUMA*         CLEAR     65  62  90 S3        30.18F
PORT FOURCHON* SUNNY     70  64  83 S3        30.22F

$$

MSZ070-080>082-300800-
SOUTHERN MISSISSIPPI

CITY           SKY/WX    TMP DP  RH WIND       PRES   REMARKS
MCCOMB         CLOUDY    63  58  83 CALM      30.20R
GULFPORT       CLEAR     67  62  84 S9        30.18F
BILOXI         CLEAR     67  64  91 SW13      30.18F
PASCAGOULA     CLEAR     66  61  84 S10       30.19F

$$

COASTAL OBSERVATIONS
LAKE AND NEARSHORE STATIONS

STATION/POSITION TIME  TEMP    WIND        PRES    WAVE
                       AIR SEA DIR/SP/G            HT/PER
                 (UTC) (F)     (DEG/KT/KT) (MB)    (FT/S)
PASCAGOULA       0600   67     190/ 14/ 18 1022.3
WAVELAND YACHT   0600   67 66  200/  7/ 13 1022.4
GRAND ISLE       0618   68 68  190/  3/  4 1022.5
SOUTHWEST PASS   0600          190/ 14/ 15   N/A
NEW CANAL        0606   67     190/  4/  5 1022.9
SHELL BEACH      0600   65 69  170/  6/  9 1022.7

OFFSHORE STATIONS

STATION/POSITION TIME  TEMP    WIND        PRES    WAVE
                       AIR SEA DIR/SP/G            HT/PER
                 (UTC) (F)     (DEG/KT/KT) (MB)    (FT/S)
64 S DAUPHIN ISL 0650   70 70  180/ 17/ 23 1023.7    4/ 4

$$




USA.gov is the U.S. government's official web portal to all federal, state and local government web resources and services.